Las Vegas, NM

9:05 PM MDT on May 25, 2017 (GMT -0600)
Las Vegas Municipal

Weather History for KLVS - June, 2014

Change the Weather History Date:

Thursday, June 26, 2014

  Actual Average Record
Temperature  
Mean Temperature 70 °F -  
Max Temperature 88 °F 83 °F 95 °F (1980)
Min Temperature 52 °F 52 °F 41 °F (1958)
Cooling Degree Days 5    
Growing Degree Days 20 (Base 50)    
Moisture  
Dew Point 40 °F    
Average Humidity 58    
Maximum Humidity 100    
Minimum Humidity 7    
Precipitation  
Precipitation 0.00 in - - ()
Sea Level Pressure  
Sea Level Pressure 29.85 in    
Wind  
Wind Speed 9 mph (SW)    
Max Wind Speed 28 mph    
Max Gust Speed 37 mph    
Visibility 7 miles    
Events Fog    
Averages and records for this station are not official NWS values.
T = Trace of Precipitation, MM = Missing Value Source: NWS Daily Summary

Daily Weather History Graph

Daily Weather History Graph

Search for Another Location

Airport or City:

Trip Planner

Search our weather history database for the weather conditions in past years. The results will help you decide how hot, cold, wet, or windy it might be!

Date:

Astronomy

Jun. 26, 2014 Rise Set
Actual Time 5:46 AM MDT 8:20 PM MDT
Civil Twilight 5:16 AM MDT 8:50 PM MDT
Nautical Twilight 4:39 AM MDT 9:27 PM MDT
Astronomical Twilight 3:57 AM MDT 10:08 PM MDT
Moon 5:25 AM MDT 7:46 PM MDT
Length of Visible Light 15h 33m
Length of Day
14h 33m
Waning Crescent, 0% of the Moon is Illuminated
Jun 26
Waning Crescent
Jun 27
New
Jul 5
First Quarter
Jul 12
Full
Jul 18
Last Quarter

Hourly Weather History & Observations

Time (MDT) Temp. Dew Point Humidity Pressure Visibility Wind Dir Wind Speed Gust Speed Precip Events Conditions
12:53 AM 57.9 °F 52.0 °F 81% 29.90 in 10.0 mi East 6.9 mph - N/A   Clear
1:53 AM 55.9 °F 52.0 °F 87% 29.90 in 10.0 mi South 8.1 mph - N/A   Clear
2:53 AM 54.0 °F 52.0 °F 93% 29.88 in 10.0 mi SSE 6.9 mph - N/A   Clear
3:53 AM 54.0 °F 52.0 °F 93% 29.88 in 8.0 mi Calm Calm - N/A   Clear
4:43 AM 53.1 °F 52.0 °F 96% 30.16 in 6.0 mi South 5.8 mph - N/A   Scattered Clouds
4:53 AM 52.0 °F 50.0 °F 93% 29.85 in 5.0 mi SSE 6.9 mph - N/A   Mostly Cloudy
5:29 AM 55.0 °F 54.0 °F 96% 30.15 in 5.0 mi South 8.1 mph - N/A   Overcast
5:48 AM 53.6 °F 53.6 °F 100% 30.14 in 1.8 mi SSW 4.6 mph - N/A   Mostly Cloudy
5:53 AM 54.0 °F 53.1 °F 97% 29.83 in 0.5 mi SSW 5.8 mph - N/A Fog Fog
6:01 AM 54.0 °F 53.1 °F 97% 30.14 in 0.2 mi SW 6.9 mph - N/A Fog Fog
6:07 AM 55.9 °F 55.0 °F 97% 30.14 in 1.0 mi WSW 5.8 mph - N/A   Overcast
6:15 AM 54.0 °F 54.0 °F 100% 30.14 in 0.2 mi NW 4.6 mph - N/A Fog Fog
6:26 AM 54.0 °F 53.1 °F 97% 30.13 in 0.2 mi NNW 3.5 mph - N/A Fog Fog
6:37 AM 54.0 °F 53.1 °F 97% 30.13 in 1.0 mi NNW 3.5 mph - N/A   Overcast
6:53 AM 53.1 °F 52.0 °F 96% 29.82 in 1.0 mi North 6.9 mph - N/A   Overcast
6:56 AM 53.1 °F 52.0 °F 96% 30.13 in 3.0 mi North 5.8 mph - N/A   Mostly Cloudy
7:10 AM 55.0 °F 52.0 °F 89% 30.13 in 7.0 mi NE 4.6 mph - N/A   Scattered Clouds
7:53 AM 59.0 °F 55.0 °F 87% 29.83 in 9.0 mi WSW 5.8 mph - N/A   Clear
8:53 AM 64.9 °F 52.0 °F 63% 29.81 in 10.0 mi SSW 3.5 mph - N/A   Clear
9:53 AM 73.9 °F 46.0 °F 37% 29.78 in 10.0 mi SSW 6.9 mph - N/A   Clear
10:53 AM 81.0 °F 36.0 °F 20% 29.74 in 10.0 mi SSW 12.7 mph 20.7 mph N/A   Clear
11:53 AM 86.0 °F 19.0 °F 8% 29.72 in 10.0 mi WSW 21.9 mph 28.8 mph N/A   Clear
12:53 PM 86.0 °F 15.1 °F 7% 29.73 in 10.0 mi WSW 23.0 mph 32.2 mph N/A   Clear
1:53 PM 86.0 °F 18.0 °F 8% 29.70 in 10.0 mi WSW 20.7 mph 25.3 mph N/A   Clear
2:53 PM 87.1 °F 16.0 °F 7% 29.67 in 10.0 mi SSW 27.6 mph 34.5 mph N/A   Clear
3:53 PM 88.0 °F 19.9 °F 8% 29.65 in 10.0 mi WSW 27.6 mph 36.8 mph N/A   Clear
4:53 PM 87.1 °F 21.0 °F 9% 29.66 in 10.0 mi WSW 25.3 mph 33.4 mph N/A   Clear
5:53 PM 87.1 °F 21.0 °F 9% 29.61 in 10.0 mi WSW 24.2 mph 31.1 mph N/A   Clear
6:53 PM 84.0 °F 19.9 °F 9% 29.63 in 10.0 mi West 18.4 mph 29.9 mph N/A   Clear
7:53 PM 80.1 °F 21.9 °F 12% 29.62 in 10.0 mi West 11.5 mph - N/A   Clear
8:53 PM 77.0 °F 21.0 °F 12% 29.62 in 10.0 mi SW 4.6 mph - N/A   Clear
9:53 PM 72.0 °F 21.0 °F 15% 29.60 in 10.0 mi SSW 5.8 mph - N/A   Clear
10:53 PM 66.9 °F 23.0 °F 19% 29.61 in 10.0 mi SSW 8.1 mph - N/A   Clear
11:53 PM 61.0 °F 23.0 °F 23% 29.60 in 10.0 mi South 11.5 mph - N/A   Clear